Weather History for Devils Lake, ND

Change the Weather History Date:

Thursday, January 24, 2013

  Actual Average Record
Temperature  
Mean Temperature -1 °F -  
Max Temperature 12 °F 18 °F 47 °F (1973)
Min Temperature -14 °F 1 °F -35 °F (1966)
Degree Days  
Heating Degree Days 66    
Moisture  
Dew Point -21 °F    
Average Humidity 49    
Maximum Humidity 77    
Minimum Humidity 21    
Precipitation  
Precipitation 0.00 in - - ()
Sea Level Pressure  
Sea Level Pressure 30.19 in    
Wind  
Wind Speed 16 mph (SSE)    
Max Wind Speed 30 mph    
Max Gust Speed 36 mph    
Visibility 9 miles    
Events      
Averages and records for this station are not official NWS values.
T = Trace of Precipitation, MM = Missing Value Source: NWS Daily Summary

Daily Weather History Graph

Daily Weather History Graph

Search for Another Location

Airport:

Trip Planner

Search our weather history database for the weather conditions in past years. The results will help you decide how hot, cold, wet, or windy it might be!

Date:

Astronomy

Jan. 24, 2013 Rise Set
Actual Time 8:12 AM CST 5:23 PM CST
Civil Twilight 7:38 AM CST 5:57 PM CST
Nautical Twilight 7:00 AM CST 6:35 PM CST
Astronomical Twilight 6:23 AM CST 7:12 PM CST
Moon 3:24 PM CST (1/24) 6:14 AM CST (1/24)
Length of Visible Light 10h 18m
Length of Day
9h 10m
Waxing Gibbous, 94% of the Moon is Illuminated
Jan 24
Waxing Gibbous
Jan 26
Full
Feb 3
Last Quarter
Feb 10
New
Feb 17
First Quarter

Hourly Weather History & Observations

Time (CST) Temp. Windchill Dew Point Humidity Pressure Visibility Wind Dir Wind Speed Gust Speed Precip Events Conditions
12:15 AM -14.8 °F -34.6 °F - N/A% 30.53 in 10.0 mi ESE 10.4 mph - N/A   Clear
12:35 AM -14.8 °F -35.6 °F -23.8 °F 64% 30.52 in 10.0 mi SE 11.5 mph - N/A   Clear
12:55 AM -14.8 °F -36.6 °F -27.4 °F 53% 30.53 in 10.0 mi SE 12.7 mph - N/A   Clear
1:15 AM -14.8 °F -36.6 °F -22.0 °F 70% 30.52 in 10.0 mi ESE 12.7 mph - N/A   Mostly Cloudy
1:35 AM -14.8 °F -36.6 °F -27.4 °F 53% 30.53 in 10.0 mi SSE 12.7 mph 17.3 mph N/A   Overcast
1:55 AM -14.8 °F -36.6 °F -20.2 °F 77% 30.51 in 10.0 mi SE 12.7 mph - N/A   Overcast
2:15 AM -14.8 °F -37.5 °F -27.4 °F 53% 30.51 in 10.0 mi SSE 13.8 mph - N/A   Scattered Clouds
2:35 AM -14.8 °F -35.6 °F -20.2 °F 77% 30.50 in 10.0 mi SSE 11.5 mph - N/A   Mostly Cloudy
2:55 AM -14.8 °F -36.6 °F -29.2 °F 48% 30.49 in 10.0 mi SSE 12.7 mph - N/A   Overcast
3:15 AM -14.8 °F -34.6 °F -23.8 °F 64% 30.48 in 10.0 mi SE 10.4 mph - N/A   Overcast
3:35 AM -14.8 °F -35.6 °F -27.4 °F 53% 30.47 in 10.0 mi SE 11.5 mph - N/A   Overcast
3:55 AM -14.8 °F -37.5 °F -25.6 °F 58% 30.45 in 10.0 mi SE 13.8 mph - N/A   Overcast
4:15 AM -13.0 °F -34.3 °F -25.6 °F 53% 30.44 in 10.0 mi SE 12.7 mph - N/A   Overcast
4:35 AM -13.0 °F -36.0 °F -23.8 °F 59% 30.44 in 10.0 mi SSE 15.0 mph - N/A   Overcast
4:55 AM -13.0 °F -35.2 °F -25.6 °F 53% 30.44 in 10.0 mi SSE 13.8 mph - N/A   Overcast
5:15 AM -11.2 °F -35.2 °F -23.8 °F 54% 30.44 in 10.0 mi SSE 17.3 mph - N/A   Overcast
5:35 AM -11.2 °F -32.9 °F -25.6 °F 49% 30.43 in 10.0 mi SSE 13.8 mph - N/A   Overcast
5:55 AM -11.2 °F -34.4 °F -25.6 °F 49% 30.42 in 10.0 mi SSE 16.1 mph - N/A   Overcast
6:15 AM -11.2 °F -33.7 °F -20.2 °F 64% 30.41 in 10.0 mi SSE 15.0 mph - N/A   Overcast
6:35 AM -11.2 °F -35.8 °F -25.6 °F 49% 30.37 in 10.0 mi SSE 18.4 mph - N/A   Overcast
6:55 AM -11.2 °F -35.8 °F -18.4 °F 70% 30.35 in 10.0 mi SSE 18.4 mph - N/A   Overcast
7:15 AM -11.2 °F -35.8 °F -23.8 °F 54% 30.35 in 10.0 mi SSE 18.4 mph - N/A   Overcast
7:35 AM -11.2 °F -33.7 °F -20.2 °F 64% 30.32 in 10.0 mi SE 15.0 mph - N/A   Overcast
7:55 AM -11.2 °F -35.2 °F -23.8 °F 54% 30.31 in 10.0 mi SE 17.3 mph - N/A   Scattered Clouds
8:15 AM -11.2 °F -35.2 °F -16.6 °F 77% 30.29 in 10.0 mi SE 17.3 mph - N/A   Clear
8:35 AM -9.4 °F -32.8 °F -22.0 °F 54% 30.29 in 10.0 mi SSE 17.3 mph - N/A   Clear
8:55 AM -9.4 °F -32.8 °F -22.0 °F 54% 30.29 in 10.0 mi SSE 17.3 mph - N/A   Clear
9:15 AM -9.4 °F -34.1 °F -18.4 °F 65% 30.30 in 10.0 mi SSE 19.6 mph - N/A   Clear
9:35 AM -9.4 °F -32.8 °F -25.6 °F 45% 30.28 in 10.0 mi SSE 17.3 mph 23.0 mph N/A   Clear
9:55 AM -9.4 °F -34.1 °F - N/A% 30.25 in 10.0 mi SSE 19.6 mph - N/A   Clear
10:15 AM -7.6 °F -32.3 °F - N/A% 30.25 in 10.0 mi SSE 20.7 mph 26.5 mph N/A   Clear
10:35 AM -7.6 °F -33.4 °F - N/A% 30.23 in 10.0 mi SSE 23.0 mph - N/A   Clear
10:55 AM -7.6 °F -33.9 °F - N/A% 30.21 in 10.0 mi SSE 24.2 mph - N/A   Mostly Cloudy
11:15 AM -7.6 °F -31.7 °F - N/A% 30.21 in 10.0 mi SSE 19.6 mph - N/A   Overcast
11:35 AM -5.8 °F -30.5 °F - N/A% 30.21 in 10.0 mi SSE 21.9 mph - N/A   Overcast
11:55 AM -5.8 °F -30.5 °F - N/A% 30.20 in 10.0 mi SSE 21.9 mph - N/A   Overcast
12:15 PM -5.8 °F -29.9 °F -31.0 °F 29% 30.19 in 10.0 mi SSE 20.7 mph - N/A   Overcast
12:35 PM -4.0 °F -27.6 °F -27.4 °F 32% 30.16 in 9.0 mi SE 20.7 mph - N/A   Overcast
12:55 PM -4.0 °F -27.6 °F -25.6 °F 35% 30.16 in 10.0 mi SSE 20.7 mph - N/A   Overcast
1:15 PM -4.0 °F -27.6 °F -23.8 °F 38% 30.15 in 10.0 mi SSE 20.7 mph - N/A   Overcast
1:35 PM -2.2 °F -25.7 °F -20.2 °F 42% 30.11 in 10.0 mi SSE 21.9 mph 28.8 mph N/A   Overcast
1:55 PM -2.2 °F -25.7 °F -18.4 °F 46% 30.09 in 10.0 mi SSE 21.9 mph 26.5 mph N/A   Overcast
2:35 PM -2.2 °F -27.6 °F -11.2 °F 66% 30.05 in 10.0 mi SSE 26.5 mph 31.1 mph N/A   Overcast
2:55 PM -0.4 °F -23.8 °F -9.4 °F 66% 30.02 in 10.0 mi SSE 23.0 mph - N/A   Overcast
3:15 PM -0.4 °F -25.6 °F - N/A% 29.99 in 2.5 mi SSE 27.6 mph 31.1 mph N/A   Overcast
3:35 PM -0.4 °F -24.7 °F - N/A% 29.97 in 0.5 mi SSE 25.3 mph 32.2 mph N/A   Overcast
3:55 PM -0.4 °F -23.3 °F -18.4 °F 43% 29.96 in 1.5 mi SSE 21.9 mph 35.7 mph N/A   Overcast
4:15 PM -0.4 °F -22.8 °F -27.4 °F 27% 29.95 in 2.0 mi SSE 20.7 mph - N/A   Overcast
4:35 PM 1.4 °F -19.9 °F -23.8 °F 30% 29.95 in 7.0 mi South 19.6 mph 25.3 mph N/A   Overcast
4:55 PM 1.4 °F -18.2 °F -20.2 °F 36% 29.97 in 10.0 mi South 16.1 mph 26.5 mph N/A   Overcast
5:15 PM 1.4 °F -16.1 °F -16.6 °F 43% 29.98 in 10.0 mi South 12.7 mph - N/A   Overcast
5:35 PM 3.2 °F -14.6 °F -11.2 °F 51% 29.98 in 5.0 mi South 13.8 mph - N/A   Overcast
5:55 PM 3.2 °F -17.1 °F -11.2 °F 51% 29.95 in 7.0 mi South 18.4 mph - N/A   Overcast
6:15 PM 3.2 °F -14.6 °F -7.6 °F 61% 29.94 in 5.0 mi South 13.8 mph - N/A   Overcast
6:35 PM 3.2 °F -15.3 °F -29.2 °F 21% 29.94 in 4.0 mi South 15.0 mph - N/A   Overcast
6:55 PM 3.2 °F -13.9 °F -25.6 °F 25% 29.93 in 6.0 mi SSE 12.7 mph - N/A   Overcast
7:15 PM 5.0 °F -10.8 °F -20.2 °F 30% 29.92 in 10.0 mi South 11.5 mph - N/A   Overcast
7:35 PM 6.8 °F -10.0 °F -13.0 °F 40% 29.91 in 10.0 mi South 13.8 mph - N/A   Overcast
9:15 PM 10.4 °F -8.2 °F -16.6 °F 29% 29.86 in 10.0 mi SSW 19.6 mph - N/A   Overcast
9:35 PM 10.4 °F -7.2 °F -9.4 °F 41% 29.84 in 9.0 mi SW 17.3 mph 20.7 mph N/A   Overcast
9:55 PM 10.4 °F -7.2 °F - N/A% 29.84 in 10.0 mi SW 17.3 mph 21.9 mph N/A   Overcast
10:35 PM 12.2 °F -5.8 °F -14.8 °F 29% 29.84 in 10.0 mi West 19.6 mph - N/A   Partly Cloudy
10:55 PM 12.2 °F -4.8 °F -5.8 °F 45% 29.84 in 10.0 mi West 17.3 mph - N/A   Clear
11:15 PM 12.2 °F -7.5 °F -9.4 °F 38% 29.84 in 5.0 mi WNW 24.2 mph 29.9 mph N/A   Clear
11:35 PM 12.2 °F -9.3 °F -13.0 °F 32% 29.84 in 2.5 mi WNW 29.9 mph 34.5 mph N/A   Clear
11:55 PM 10.4 °F -7.7 °F - N/A% 29.85 in 6.0 mi WNW 18.4 mph - N/A   Mostly Cloudy